![]() |
EMODnet Physics ERDDAP
Easier access to scientific data |
log in|
Brought to you by EMODnet Physics |
| Dataset Title: | NDBC - Collection of dew point temperature (DEWT) TimeSeries - IN SITU MultiPointTimeSeriesObservation
|
| Institution: | NDBC (Dataset ID: TS_DEWT_NDBC) |
| Information: | Summary
| License
| FGDC
| ISO 19115
| Metadata
| Background
| Subset
| Data Access Form
| Make a graph
|
| Name | Last modified | Size | Description | |
|---|---|---|---|---|
| Parent Directory | - | - | ||
| 51208_TS_DEWT_012014.nc | 27-Oct-2024 04:26 | 429834 | ||
| 51208_TS_DEWT_012016.nc | 27-Oct-2024 04:26 | 429835 | ||
| 51208_TS_DEWT_012017.nc | 27-Oct-2024 04:26 | 429836 | ||
| 51208_TS_DEWT_012018.nc | 27-Oct-2024 04:26 | 429835 | ||
| 51208_TS_DEWT_012019.nc | 27-Oct-2024 04:26 | 1265808 | ||
| 51208_TS_DEWT_012020.nc | 27-Oct-2024 04:26 | 1264097 | ||
| 51208_TS_DEWT_012022.nc | 27-Oct-2024 04:26 | 1262134 | ||
| 51208_TS_DEWT_012023.nc | 27-Oct-2024 04:27 | 1144143 | ||
| 51208_TS_DEWT_022014.nc | 27-Oct-2024 04:27 | 1264368 | ||
| 51208_TS_DEWT_022016.nc | 27-Oct-2024 04:27 | 5524790 | ||
| 51208_TS_DEWT_022017.nc | 27-Oct-2024 04:27 | 429284 | ||
| 51208_TS_DEWT_022018.nc | 27-Oct-2024 04:27 | 429288 | ||
| 51208_TS_DEWT_022019.nc | 27-Oct-2024 04:27 | 429489 | ||
| 51208_TS_DEWT_022020.nc | 27-Oct-2024 04:27 | 429478 | ||
| 51208_TS_DEWT_022022.nc | 27-Oct-2024 04:27 | 429495 | ||
| 51208_TS_DEWT_022023.nc | 27-Oct-2024 04:27 | 429495 | ||
| 51208_TS_DEWT_032014.nc | 27-Oct-2024 04:27 | 429494 | ||
| 51208_TS_DEWT_032015.nc | 27-Oct-2024 04:27 | 429492 | ||
| 51208_TS_DEWT_032016.nc | 27-Oct-2024 04:27 | 424291 | ||
| 51208_TS_DEWT_032017.nc | 27-Oct-2024 04:27 | 429494 | ||
| 51208_TS_DEWT_032018.nc | 27-Oct-2024 04:27 | 429495 | ||
| 51208_TS_DEWT_032019.nc | 27-Oct-2024 04:27 | 429489 | ||
| 51208_TS_DEWT_032020.nc | 27-Oct-2024 04:27 | 429492 | ||
| 51208_TS_DEWT_032022.nc | 27-Oct-2024 04:27 | 429495 | ||
| 51208_TS_DEWT_042014.nc | 27-Oct-2024 04:27 | 429490 | ||
| 51208_TS_DEWT_042015.nc | 27-Oct-2024 04:27 | 429491 | ||
| 51208_TS_DEWT_042017.nc | 27-Oct-2024 04:27 | 429496 | ||
| 51208_TS_DEWT_042018.nc | 27-Oct-2024 04:28 | 1111807 | ||
| 51208_TS_DEWT_042019.nc | 27-Oct-2024 04:28 | 1115723 | ||
| 51208_TS_DEWT_042020.nc | 27-Oct-2024 04:28 | 1100664 | ||
| 51208_TS_DEWT_042022.nc | 27-Oct-2024 04:28 | 995721 | ||
| 51208_TS_DEWT_042023.nc | 27-Oct-2024 04:28 | 1111597 | ||
| 51208_TS_DEWT_052014.nc | 27-Oct-2024 04:28 | 4788757 | ||
| 51208_TS_DEWT_052015.nc | 27-Oct-2024 04:28 | 429623 | ||
| 51208_TS_DEWT_052017.nc | 27-Oct-2024 04:28 | 429614 | ||
| 51208_TS_DEWT_052018.nc | 27-Oct-2024 04:28 | 429831 | ||
| 51208_TS_DEWT_052019.nc | 27-Oct-2024 04:28 | 429838 | ||
| 51208_TS_DEWT_052020.nc | 27-Oct-2024 04:28 | 429830 | ||
| 51208_TS_DEWT_052021.nc | 27-Oct-2024 04:28 | 429835 | ||
| 51208_TS_DEWT_052022.nc | 27-Oct-2024 04:28 | 429835 | ||
| 51208_TS_DEWT_052023.nc | 27-Oct-2024 04:28 | 422855 | ||
| 51208_TS_DEWT_062014.nc | 27-Oct-2024 04:28 | 429834 | ||
| 51208_TS_DEWT_062015.nc | 27-Oct-2024 04:28 | 429837 | ||
| 51208_TS_DEWT_062017.nc | 27-Oct-2024 04:28 | 429831 | ||
| 51208_TS_DEWT_062019.nc | 27-Oct-2024 04:29 | 429837 | ||
| 51208_TS_DEWT_062020.nc | 27-Oct-2024 04:29 | 429837 | ||
| 51208_TS_DEWT_062021.nc | 27-Oct-2024 04:29 | 429829 | ||
| 51208_TS_DEWT_062022.nc | 27-Oct-2024 04:29 | 429839 | ||
| 51208_TS_DEWT_062023.nc | 27-Oct-2024 04:29 | 429874 | ||
| 51208_TS_DEWT_072014.nc | 27-Oct-2024 04:29 | 429830 | ||
| 51208_TS_DEWT_072015.nc | 27-Oct-2024 04:29 | 1265067 | ||
| 51208_TS_DEWT_072017.nc | 27-Oct-2024 04:29 | 1265383 | ||
| 51208_TS_DEWT_072018.nc | 27-Oct-2024 04:29 | 1179915 | ||
| 51208_TS_DEWT_072019.nc | 27-Oct-2024 04:29 | 1144205 | ||
| 51208_TS_DEWT_072020.nc | 27-Oct-2024 04:29 | 1267950 | ||
| 51208_TS_DEWT_072021.nc | 27-Oct-2024 04:29 | 1373602 | ||
| 51208_TS_DEWT_072022.nc | 27-Oct-2024 04:29 | 5503984 | ||
| 51208_TS_DEWT_072023.nc | 27-Oct-2024 04:29 | 422630 | ||
| 51208_TS_DEWT_082015.nc | 27-Oct-2024 04:29 | 429294 | ||
| 51208_TS_DEWT_082017.nc | 27-Oct-2024 04:29 | 424681 | ||
| 51208_TS_DEWT_082019.nc | 27-Oct-2024 04:29 | 429493 | ||
| 51208_TS_DEWT_082021.nc | 27-Oct-2024 04:29 | 426558 | ||
| 51208_TS_DEWT_082022.nc | 27-Oct-2024 04:29 | 422608 | ||
| 51208_TS_DEWT_082023.nc | 27-Oct-2024 04:30 | 427701 | ||
| 51208_TS_DEWT_092015.nc | 27-Oct-2024 04:30 | 428832 | ||
| 51208_TS_DEWT_092017.nc | 27-Oct-2024 04:30 | 425633 | ||
| 51208_TS_DEWT_092018.nc | 27-Oct-2024 04:30 | 429447 | ||
| 51208_TS_DEWT_092019.nc | 27-Oct-2024 04:30 | 429492 | ||
| 51208_TS_DEWT_092021.nc | 27-Oct-2024 04:30 | 429491 | ||
| 51208_TS_DEWT_092022.nc | 27-Oct-2024 04:30 | 429495 | ||
| 51208_TS_DEWT_092023.nc | 27-Oct-2024 04:30 | 429472 | ||
| 51208_TS_DEWT_102013.nc | 27-Oct-2024 04:30 | 429475 | ||
| 51208_TS_DEWT_102014.nc | 27-Oct-2024 04:30 | 425025 | ||
| 51208_TS_DEWT_102015.nc | 27-Oct-2024 04:30 | 685854 | ||
| 51208_TS_DEWT_102016.nc | 27-Oct-2024 04:30 | 435994 | ||
| 51208_TS_DEWT_102017.nc | 27-Oct-2024 04:30 | 1030935 | ||
| 51208_TS_DEWT_102018.nc | 27-Oct-2024 04:30 | 995795 | ||
| 51208_TS_DEWT_102019.nc | 27-Oct-2024 04:30 | 1119041 | ||
| 51208_TS_DEWT_102020.nc | 27-Oct-2024 04:30 | 5095029 | ||
| 51208_TS_DEWT_102021.nc | 27-Oct-2024 04:30 | 1932397 | ||
| 51208_TS_DEWT_102022.nc | 27-Oct-2024 04:31 | 419620 | ||
| 51208_TS_DEWT_102023.nc | 27-Oct-2024 04:31 | 419068 | ||
| 51208_TS_DEWT_112013.nc | 27-Oct-2024 04:31 | 418800 | ||
| 51208_TS_DEWT_112015.nc | 27-Oct-2024 04:31 | 429837 | ||
| 51208_TS_DEWT_112016.nc | 27-Oct-2024 04:31 | 429821 | ||
| 51208_TS_DEWT_112017.nc | 27-Oct-2024 04:31 | 429759 | ||
| 51208_TS_DEWT_112018.nc | 27-Oct-2024 04:31 | 429836 | ||
| 51208_TS_DEWT_112020.nc | 27-Oct-2024 04:31 | 419269 | ||
| 51208_TS_DEWT_112021.nc | 27-Oct-2024 04:31 | 591146 | ||
| 51208_TS_DEWT_112022.nc | 27-Oct-2024 04:31 | 645127 | ||
| 51208_TS_DEWT_112023.nc | 27-Oct-2024 04:31 | 572228 | ||
| 51208_TS_DEWT_122013.nc | 27-Oct-2024 04:31 | 429536 | ||
| 51208_TS_DEWT_122015.nc | 27-Oct-2024 04:31 | 423968 | ||
| 51208_TS_DEWT_122016.nc | 27-Oct-2024 04:31 | 439873 | ||
| 51208_TS_DEWT_122017.nc | 27-Oct-2024 04:31 | 426826 | ||
| 51208_TS_DEWT_122018.nc | 27-Oct-2024 04:31 | 428211 | ||
| 51208_TS_DEWT_122021.nc | 27-Oct-2024 04:31 | 421884 | ||
| 51208_TS_DEWT_122022.nc | 27-Oct-2024 04:32 | 435708 | ||
| 51208_TS_DEWT_122023.nc | 27-Oct-2024 04:32 | 588182 | ||